Location: Kutna Hora
(49.9500°N, 15.2670°E)
Time: 04:14:22
(UTC+02:00)

ISS - Pass Details

Date: 28 March 2019
Orbit: 408 x 410 km, 51.6° (Epoch: 20 April)

Event Time Altitude Azimuth Distance (km) Brightness Sun altitude
Rises 19:18:42 0° 260° (W) 2,335 1.3 -9.5°
Reaches altitude 10° 19:20:48 10° 263° (W) 1,474 0.2 -9.8°
Maximum altitude 19:24:06 74° 348° (NNW) 430 -3.7 -10.3°
Enters shadow 19:27:02 13° 74° (ENE) 1,324 -1.7 -10.7°
